Time,TemperatureF,DewpointF,PressureIn,WindDirection,WindDirectionDegrees,WindSpeedMPH,WindSpeedGustMPH,Humidity,HourlyPrecipIn,Conditions,Clouds,dailyrainin,SoftwareType,DateUTC
2013-01-18 00:03:00,25.8,12.2,30.05,North,8,1.0,5.0,56,0.00,RA,,0.00,WeatherDisplay:10.37,2013-01-18 05:03:00,
2013-01-18 00:13:00,25.8,12.6,30.07,North,355,1.0,6.0,57,0.00,CLR,,0.00,WeatherDisplay:10.37,2013-01-18 05:13:00,
2013-01-18 00:23:00,25.7,12.6,30.07,NNW,334,3.0,6.0,57,0.00,CLR,,0.00,WeatherDisplay:10.37,2013-01-18 05:23:00,
2013-01-18 00:33:00,25.7,12.9,30.07,NNE,22,2.0,6.0,58,0.00,CLR,,0.00,WeatherDisplay:10.37,2013-01-18 05:33:00,
2013-01-18 00:43:00,25.7,12.6,30.08,NNE,33,2.0,6.0,57,0.00,CLR,,0.00,WeatherDisplay:10.37,2013-01-18 05:43:00,
2013-01-18 00:53:00,25.4,10.6,30.06,NE,38,2.0,10.0,53,0.00,CLR,,0.00,WeatherDisplay:10.37,2013-01-18 05:53:00,
2013-01-18 01:03:00,25.1,9.5,30.06,North,360,1.0,13.0,51,0.00,CLR,,0.00,WeatherDisplay:10.37,2013-01-18 06:03:00,
2013-01-18 01:13:00,24.9,9.7,30.06,NE,35,3.0,6.0,52,0.00,CLR,,0.00,WeatherDisplay:10.37,2013-01-18 06:13:00,
2013-01-18 01:23:00,24.8,8.3,30.05,North,4,2.0,5.0,49,0.00,OVC,,0.00,WeatherDisplay:10.37,2013-01-18 06:23:00,
2013-01-18 01:33:00,24.6,8.6,30.05,NE,42,1.0,5.0,50,0.00,OVC,,0.00,WeatherDisplay:10.37,2013-01-18 06:33:00,
2013-01-18 01:43:00,24.6,9.0,30.04,NE,38,2.0,5.0,51,0.00,OVC,,0.00,WeatherDisplay:10.37,2013-01-18 06:43:00,
2013-01-18 01:53:00,24.6,9.0,30.07,North,1,1.0,5.0,51,0.00,OVC,,0.00,WeatherDisplay:10.37,2013-01-18 06:53:00,
2013-01-18 02:03:00,24.5,8.9,30.07,NNW,343,1.0,6.0,51,0.00,OVC,,0.00,WeatherDisplay:10.37,2013-01-18 07:03:00,
2013-01-18 02:13:00,24.4,9.3,30.07,NNW,337,1.0,5.0,52,0.00,OVC,,0.00,WeatherDisplay:10.37,2013-01-18 07:13:00,
2013-01-18 02:23:00,24.4,8.8,30.08,NNW,337,3.0,5.0,51,0.00,OVC,,0.00,WeatherDisplay:10.37,2013-01-18 07:23:00,
2013-01-18 02:33:00,24.4,9.3,30.08,North,5,1.0,3.0,52,0.00,OVC,,0.00,WeatherDisplay:10.37,2013-01-18 07:33:00,
2013-01-18 02:43:00,24.2,8.2,30.09,NNE,22,1.0,5.0,50,0.00,OVC,,0.00,WeatherDisplay:10.37,2013-01-18 07:43:00,
2013-01-18 02:53:00,23.9,7.9,30.07,NE,56,3.0,7.0,50,0.00,OVC,,0.00,WeatherDisplay:10.37,2013-01-18 07:53:00,
2013-01-18 03:03:00,23.8,6.5,30.07,NE,52,3.0,10.0,47,0.00,OVC,,0.00,WeatherDisplay:10.37,2013-01-18 08:03:00,
2013-01-18 03:13:00,23.5,6.2,30.08,NE,51,3.0,10.0,47,0.00,OVC,,0.00,WeatherDisplay:10.37,2013-01-18 08:13:00,
2013-01-18 03:23:00,23.3,6.9,30.06,NNE,26,2.0,10.0,49,0.00,OVC,,0.00,WeatherDisplay:10.37,2013-01-18 08:23:00,
2013-01-18 03:33:00,23.0,5.7,30.06,NE,34,3.0,13.0,47,0.00,OVC,,0.00,WeatherDisplay:10.37,2013-01-18 08:33:00,
2013-01-18 03:43:00,22.6,4.4,30.07,NNE,13,5.0,15.0,45,0.00,OVC,,0.00,WeatherDisplay:10.37,2013-01-18 08:43:00,
2013-01-18 03:53:00,22.4,4.2,30.09,NNE,26,5.0,13.0,45,0.00,OVC,,0.00,WeatherDisplay:10.37,2013-01-18 08:53:00,
2013-01-18 04:03:00,22.0,3.9,30.09,NE,35,5.0,13.0,45,0.00,OVC,,0.00,WeatherDisplay:10.37,2013-01-18 09:03:00,
2013-01-18 04:13:00,21.7,4.1,30.08,North,9,5.0,10.0,46,0.00,OVC,,0.00,WeatherDisplay:10.37,2013-01-18 09:13:00,
2013-01-18 04:23:00,21.5,4.4,30.09,North,11,2.0,13.0,47,0.00,OVC,,0.00,WeatherDisplay:10.37,2013-01-18 09:23:00,
2013-01-18 04:33:00,21.0,3.4,30.09,NE,37,7.0,14.0,46,0.00,OVC,,0.00,WeatherDisplay:10.37,2013-01-18 09:33:00,
2013-01-18 04:43:00,20.6,2.6,30.10,NNE,26,2.0,12.0,45,0.00,OVC,,0.00,WeatherDisplay:10.37,2013-01-18 09:43:00,
2013-01-18 04:53:00,20.1,0.6,30.11,NNW,345,3.0,15.0,42,0.00,OVC,,0.00,WeatherDisplay:10.37,2013-01-18 09:53:00,
2013-01-18 05:03:00,19.4,-0.5,30.11,NNE,15,5.0,14.0,41,0.00,OVC,,0.00,WeatherDisplay:10.37,2013-01-18 10:03:00,
2013-01-18 05:13:00,19.0,0.1,30.14,NNW,347,2.0,9.0,43,0.00,OVC,,0.00,WeatherDisplay:10.37,2013-01-18 10:13:00,
2013-01-18 05:23:00,18.7,0.4,30.14,North,359,3.0,13.0,44,0.00,BKN,,0.00,WeatherDisplay:10.37,2013-01-18 10:23:00,
2013-01-18 05:33:00,18.2,-0.1,30.14,NNW,344,5.0,12.0,44,0.00,BKN,,0.00,WeatherDisplay:10.37,2013-01-18 10:33:00,
2013-01-18 05:43:00,17.7,-1.0,30.14,NNW,342,6.0,15.0,43,0.00,BKN,,0.00,WeatherDisplay:10.37,2013-01-18 10:43:00,
2013-01-18 05:53:00,17.4,-0.8,30.16,NNW,340,5.0,14.0,44,0.00,BKN,,0.00,WeatherDisplay:10.37,2013-01-18 10:53:00,
2013-01-18 06:03:00,17.1,-0.6,30.16,NNW,334,2.0,13.0,45,0.00,BKN,,0.00,WeatherDisplay:10.37,2013-01-18 11:03:00,
2013-01-18 06:13:00,16.8,-0.9,30.18,NNW,344,5.0,10.0,45,0.00,BKN,,0.00,WeatherDisplay:10.37,2013-01-18 11:13:00,
2013-01-18 06:23:00,16.6,-1.1,30.20,NNW,348,2.0,10.0,45,0.00,CLR,,0.00,WeatherDisplay:10.37,2013-01-18 11:23:00,
2013-01-18 06:33:00,16.3,-1.4,30.20,North,353,3.0,10.0,45,0.00,CLR,,0.00,WeatherDisplay:10.37,2013-01-18 11:33:00,
2013-01-18 06:43:00,16.1,-1.1,30.21,North,358,3.0,8.0,46,0.00,CLR,,0.00,WeatherDisplay:10.37,2013-01-18 11:43:00,
2013-01-18 06:53:00,15.8,-1.4,30.21,NNW,340,3.0,10.0,46,0.00,CLR,,0.00,WeatherDisplay:10.37,2013-01-18 11:53:00,
2013-01-18 07:03:00,15.5,-0.7,30.21,North,2,2.0,5.0,48,0.00,CLR,,0.00,WeatherDisplay:10.37,2013-01-18 12:03:00,
2013-01-18 07:13:00,15.2,-1.0,30.23,NNW,348,6.0,9.0,48,0.00,CLR,,0.00,WeatherDisplay:10.37,2013-01-18 12:13:00,
2013-01-18 07:23:00,15.0,-1.2,30.24,NNW,344,2.0,9.0,48,0.00,CLR,,0.00,WeatherDisplay:10.37,2013-01-18 12:23:00,
2013-01-18 07:33:00,14.7,-1.9,30.24,NW,322,5.0,12.0,47,0.00,CLR,,0.00,WeatherDisplay:10.37,2013-01-18 12:33:00,
2013-01-18 07:43:00,14.7,-2.4,30.25,NW,314,5.0,8.0,46,0.00,CLR,,0.00,WeatherDisplay:10.37,2013-01-18 12:43:00,
2013-01-18 07:53:00,14.7,-2.4,30.27,NNW,346,2.0,9.0,46,0.00,CLR,,0.00,WeatherDisplay:10.37,2013-01-18 12:53:00,
2013-01-18 08:03:00,14.7,-3.3,30.27,NW,326,5.0,10.0,44,0.00,CLR,,0.00,WeatherDisplay:10.37,2013-01-18 13:03:00,
2013-01-18 08:13:00,14.9,-3.1,30.27,NW,319,1.0,10.0,44,0.00,CLR,,0.00,WeatherDisplay:10.37,2013-01-18 13:13:00,
2013-01-18 08:23:00,15.0,-3.0,30.28,NNW,337,8.0,13.0,44,0.00,CLR,,0.00,WeatherDisplay:10.37,2013-01-18 13:23:00,
2013-01-18 08:33:00,14.9,-3.6,30.28,NNW,339,7.0,13.0,43,0.00,CLR,,0.00,WeatherDisplay:10.37,2013-01-18 13:33:00,
2013-01-18 08:43:00,14.9,-3.6,30.29,NW,318,5.0,12.0,43,0.00,CLR,,0.00,WeatherDisplay:10.37,2013-01-18 13:43:00,
2013-01-18 08:53:00,15.2,-3.3,30.30,NW,317,2.0,7.0,43,0.00,CLR,,0.00,WeatherDisplay:10.37,2013-01-18 13:53:00,
2013-01-18 09:03:00,15.3,-3.7,30.30,NNW,331,3.0,13.0,42,0.00,CLR,,0.00,WeatherDisplay:10.37,2013-01-18 14:03:00,
2013-01-18 09:13:00,15.3,-3.7,30.30,NW,317,3.0,12.0,42,0.00,CLR,,0.00,WeatherDisplay:10.37,2013-01-18 14:13:00,
2013-01-18 09:23:00,15.5,-3.1,30.31,NW,310,1.0,12.0,43,0.00,CLR,,0.00,WeatherDisplay:10.37,2013-01-18 14:23:00,
2013-01-18 09:33:00,15.5,-4.6,30.31,NW,325,7.0,12.0,40,0.00,CLR,,0.00,WeatherDisplay:10.37,2013-01-18 14:33:00,
2013-01-18 09:43:00,15.7,-4.4,30.32,NW,309,7.0,13.0,40,0.00,CLR,,0.00,WeatherDisplay:10.37,2013-01-18 14:43:00,
2013-01-18 09:53:00,15.9,-3.7,30.32,NW,322,3.0,12.0,41,0.00,CLR,,0.00,WeatherDisplay:10.37,2013-01-18 14:53:00,
2013-01-18 10:03:00,16.3,-3.3,30.32,WNW,300,2.0,10.0,41,0.00,CLR,,0.00,WeatherDisplay:10.37,2013-01-18 15:03:00,
2013-01-18 10:13:00,16.8,-3.9,30.32,NW,313,6.0,15.0,39,0.00,CLR,,0.00,WeatherDisplay:10.37,2013-01-18 15:13:00,
2013-01-18 10:23:00,17.2,-4.1,30.33,NW,313,9.0,16.0,38,0.00,CLR,,0.00,WeatherDisplay:10.37,2013-01-18 15:23:00,
2013-01-18 10:33:00,17.2,-5.2,30.33,NW,312,9.0,16.0,36,0.00,CLR,,0.00,WeatherDisplay:10.37,2013-01-18 15:33:00,
2013-01-18 10:43:00,17.2,-5.8,30.34,NW,319,10.0,18.0,35,0.00,CLR,,0.00,WeatherDisplay:10.37,2013-01-18 15:43:00,
2013-01-18 10:53:00,17.6,-4.9,30.34,NW,319,8.0,17.0,36,0.00,CLR,,0.00,WeatherDisplay:10.37,2013-01-18 15:53:00,
2013-01-18 11:03:00,17.7,-6.0,30.34,NW,324,9.0,18.0,34,0.00,CLR,,0.00,WeatherDisplay:10.37,2013-01-18 16:03:00,
2013-01-18 11:13:00,17.7,-4.8,30.34,NNW,335,7.0,16.0,36,0.00,CLR,,0.00,WeatherDisplay:10.37,2013-01-18 16:13:00,
2013-01-18 11:23:00,18.0,-5.1,30.34,NW,319,7.0,15.0,35,0.00,CLR,,0.00,WeatherDisplay:10.37,2013-01-18 16:23:00,
2013-01-18 11:33:00,18.2,-5.5,30.34,NW,314,6.0,20.0,34,0.00,CLR,,0.00,WeatherDisplay:10.37,2013-01-18 16:33:00,
2013-01-18 11:43:00,18.3,-6.1,30.33,NW,309,8.0,17.0,33,0.00,CLR,,0.00,WeatherDisplay:10.37,2013-01-18 16:43:00,
2013-01-18 11:53:00,18.7,-3.9,30.33,WNW,294,6.0,14.0,36,0.00,CLR,,0.00,WeatherDisplay:10.37,2013-01-18 16:53:00,
2013-01-18 12:03:00,18.7,-5.7,30.33,WNW,295,13.0,20.0,33,0.00,CLR,,0.00,WeatherDisplay:10.37,2013-01-18 17:03:00,
2013-01-18 12:13:00,19.1,-4.1,30.33,WNW,282,7.0,17.0,35,0.00,CLR,,0.00,WeatherDisplay:10.37,2013-01-18 17:13:00,
2013-01-18 12:23:00,19.8,-2.3,30.33,West,278,7.0,14.0,37,0.00,CLR,,0.00,WeatherDisplay:10.37,2013-01-18 17:23:00,
2013-01-18 12:33:00,19.8,-4.7,30.33,WNW,294,3.0,13.0,33,0.00,CLR,,0.00,WeatherDisplay:10.37,2013-01-18 17:33:00,
2013-01-18 12:43:00,19.6,-4.9,30.33,WNW,293,3.0,12.0,33,0.00,CLR,,0.00,WeatherDisplay:10.37,2013-01-18 17:43:00,
2013-01-18 12:53:00,19.7,-5.4,30.34,West,278,7.0,14.0,32,0.00,CLR,,0.00,WeatherDisplay:10.37,2013-01-18 17:53:00,
2013-01-18 13:03:00,20.2,-4.4,30.34,West,277,5.0,12.0,33,0.00,CLR,,0.00,WeatherDisplay:10.37,2013-01-18 18:03:00,
2013-01-18 13:13:00,20.5,-4.1,30.34,West,273,10.0,20.0,33,0.00,CLR,,0.00,WeatherDisplay:10.37,2013-01-18 18:13:00,
2013-01-18 13:23:00,20.4,-3.0,30.34,West,271,8.0,19.0,35,0.00,CLR,,0.00,WeatherDisplay:10.37,2013-01-18 18:23:00,
2013-01-18 13:33:00,20.6,-3.4,30.34,West,273,9.0,20.0,34,0.00,CLR,,0.00,WeatherDisplay:10.37,2013-01-18 18:33:00,
2013-01-18 13:43:00,20.6,-4.0,30.34,West,278,10.0,18.0,33,0.00,CLR,,0.00,WeatherDisplay:10.37,2013-01-18 18:43:00,
2013-01-18 13:53:00,20.7,-3.3,30.34,WNW,287,7.0,20.0,34,0.00,CLR,,0.00,WeatherDisplay:10.37,2013-01-18 18:53:00,
2013-01-18 14:03:00,21.0,-2.4,30.34,WNW,290,3.0,16.0,35,0.00,CLR,,0.00,WeatherDisplay:10.37,2013-01-18 19:03:00,
2013-01-18 14:13:00,21.3,-2.8,30.34,WNW,295,6.0,15.0,34,0.00,CLR,,0.00,WeatherDisplay:10.37,2013-01-18 19:13:00,
2013-01-18 14:23:00,21.3,-2.8,30.35,WNW,284,9.0,20.0,34,0.00,CLR,,0.00,WeatherDisplay:10.37,2013-01-18 19:23:00,
2013-01-18 14:33:00,21.0,-4.3,30.35,West,268,10.0,20.0,32,0.00,CLR,,0.00,WeatherDisplay:10.37,2013-01-18 19:33:00,
2013-01-18 14:43:00,20.9,-2.5,30.36,West,277,6.0,21.0,35,0.00,CLR,,0.00,WeatherDisplay:10.37,2013-01-18 19:43:00,
2013-01-18 14:53:00,20.6,-3.4,30.37,WNW,294,7.0,22.0,34,0.00,CLR,,0.00,WeatherDisplay:10.37,2013-01-18 19:53:00,
2013-01-18 15:03:00,20.7,-3.3,30.37,WNW,302,6.0,15.0,34,0.00,CLR,,0.00,WeatherDisplay:10.37,2013-01-18 20:03:00,
2013-01-18 15:13:00,20.7,-2.1,30.36,WNW,283,3.0,13.0,36,0.00,CLR,,0.00,WeatherDisplay:10.37,2013-01-18 20:13:00,
2013-01-18 15:23:00,20.7,-1.5,30.37,WNW,302,2.0,12.0,37,0.00,CLR,,0.00,WeatherDisplay:10.37,2013-01-18 20:23:00,
2013-01-18 15:33:00,20.7,-1.5,30.37,WNW,285,6.0,13.0,37,0.00,CLR,,0.00,WeatherDisplay:10.37,2013-01-18 20:33:00,
2013-01-18 15:43:00,20.6,-1.0,30.37,West,281,3.0,17.0,38,0.00,CLR,,0.00,WeatherDisplay:10.37,2013-01-18 20:43:00,
2013-01-18 15:53:00,20.4,-0.7,30.37,West,261,5.0,14.0,39,0.00,CLR,,0.00,WeatherDisplay:10.37,2013-01-18 20:53:00,
2013-01-18 16:03:00,19.9,-2.8,30.37,West,275,6.0,15.0,36,0.00,CLR,,0.00,WeatherDisplay:10.37,2013-01-18 21:03:00,
2013-01-18 16:13:00,19.8,-1.8,30.38,WNW,290,3.0,13.0,38,0.00,CLR,,0.00,WeatherDisplay:10.37,2013-01-18 21:13:00,
2013-01-18 16:23:00,19.6,-0.3,30.38,West,266,2.0,14.0,41,0.00,CLR,,0.00,WeatherDisplay:10.37,2013-01-18 21:23:00,
2013-01-18 16:33:00,19.3,0.4,30.38,West,268,6.0,12.0,43,0.00,CLR,,0.00,WeatherDisplay:10.37,2013-01-18 21:33:00,
2013-01-18 16:43:00,19.0,0.1,30.39,West,264,2.0,10.0,43,0.00,CLR,,0.00,WeatherDisplay:10.37,2013-01-18 21:43:00,
2013-01-18 16:53:00,18.7,-0.1,30.39,West,280,6.0,12.0,43,0.00,CLR,,0.00,WeatherDisplay:10.37,2013-01-18 21:53:00,
2013-01-18 17:03:00,18.5,0.2,30.39,WNW,295,2.0,7.0,44,0.00,CLR,,0.00,WeatherDisplay:10.37,2013-01-18 22:03:00,
2013-01-18 17:13:00,18.2,0.9,30.40,West,275,1.0,5.0,46,0.00,CLR,,0.00,WeatherDisplay:10.37,2013-01-18 22:13:00,
2013-01-18 17:23:00,18.0,1.1,30.41,West,266,3.0,6.0,47,0.00,CLR,,0.00,WeatherDisplay:10.37,2013-01-18 22:23:00,
2013-01-18 17:33:00,18.0,0.2,30.41,WNW,301,1.0,4.0,45,0.00,CLR,,0.00,WeatherDisplay:10.37,2013-01-18 22:33:00,
2013-01-18 17:43:00,17.9,0.1,30.41,West,280,1.0,5.0,45,0.00,CLR,,0.00,WeatherDisplay:10.37,2013-01-18 22:43:00,
2013-01-18 17:53:00,17.7,0.4,30.41,West,263,2.0,8.0,46,0.00,CLR,,0.00,WeatherDisplay:10.37,2013-01-18 22:53:00,
2013-01-18 18:03:00,17.4,0.6,30.41,SW,227,0.0,2.0,47,0.00,CLR,,0.00,WeatherDisplay:10.37,2013-01-18 23:03:00,
2013-01-18 18:13:00,16.9,0.6,30.42,SW,232,0.0,1.0,48,0.00,CLR,,0.00,WeatherDisplay:10.37,2013-01-18 23:13:00,
2013-01-18 18:23:00,16.6,0.8,30.42,SW,226,0.0,2.0,49,0.00,CLR,,0.00,WeatherDisplay:10.37,2013-01-18 23:23:00,
2013-01-18 18:33:00,16.5,1.5,30.42,SW,228,0.0,1.0,51,0.00,CLR,,0.00,WeatherDisplay:10.37,2013-01-18 23:33:00,
2013-01-18 18:43:00,16.1,1.5,30.43,SW,226,0.0,0.0,52,0.00,CLR,,0.00,WeatherDisplay:10.37,2013-01-18 23:43:00,
2013-01-18 18:53:00,16.1,1.5,30.44,WNW,291,1.0,2.0,52,0.00,CLR,,0.00,WeatherDisplay:10.37,2013-01-18 23:53:00,
2013-01-18 19:03:00,16.5,1.9,30.44,WNW,288,1.0,3.0,52,0.00,CLR,,0.00,WeatherDisplay:10.37,2013-01-19 00:03:00,
2013-01-18 19:13:00,16.3,2.5,30.43,West,279,1.0,2.0,54,0.00,CLR,,0.00,WeatherDisplay:10.37,2013-01-19 00:13:00,
2013-01-18 19:23:00,16.0,3.0,30.44,West,272,0.0,3.0,56,0.00,CLR,,0.00,WeatherDisplay:10.37,2013-01-19 00:23:00,
2013-01-18 19:33:00,15.3,2.8,30.44,WSW,250,0.0,2.0,57,0.00,CLR,,0.00,WeatherDisplay:10.37,2013-01-19 00:33:00,
2013-01-18 19:43:00,14.9,2.8,30.43,WSW,247,1.0,2.0,58,0.00,CLR,,0.00,WeatherDisplay:10.37,2013-01-19 00:43:00,
2013-01-18 19:53:00,15.2,3.1,30.43,West,273,1.0,3.0,58,0.00,CLR,,0.00,WeatherDisplay:10.37,2013-01-19 00:53:00,
2013-01-18 20:03:00,15.3,2.8,30.43,West,279,1.0,3.0,57,0.00,CLR,,0.00,WeatherDisplay:10.37,2013-01-19 01:03:00,
2013-01-18 20:13:00,15.2,2.7,30.43,WSW,253,1.0,2.0,57,0.00,CLR,,0.00,WeatherDisplay:10.37,2013-01-19 01:13:00,
2013-01-18 20:23:00,15.0,2.9,30.44,WSW,254,2.0,3.0,58,0.00,CLR,,0.00,WeatherDisplay:10.37,2013-01-19 01:23:00,
2013-01-18 20:33:00,15.3,3.1,30.44,West,280,1.0,3.0,58,0.00,CLR,,0.00,WeatherDisplay:10.37,2013-01-19 01:33:00,
2013-01-18 20:43:00,15.7,3.1,30.44,West,273,1.0,3.0,57,0.00,CLR,,0.00,WeatherDisplay:10.37,2013-01-19 01:43:00,
2013-01-18 20:53:00,15.3,3.2,30.43,SSW,204,1.0,5.0,58,0.00,CLR,,0.00,WeatherDisplay:10.37,2013-01-19 01:53:00,
2013-01-18 21:03:00,15.3,3.1,30.43,WSW,249,2.0,4.0,58,0.00,CLR,,0.00,WeatherDisplay:10.37,2013-01-19 02:03:00,
2013-01-18 21:13:00,15.3,3.1,30.43,WSW,241,1.0,2.0,58,0.00,CLR,,0.00,WeatherDisplay:10.37,2013-01-19 02:13:00,
2013-01-18 21:23:00,15.2,3.1,30.43,West,278,1.0,3.0,58,0.00,CLR,,0.00,WeatherDisplay:10.37,2013-01-19 02:23:00,
2013-01-18 21:33:00,15.2,3.4,30.43,West,271,1.0,3.0,59,0.00,CLR,,0.00,WeatherDisplay:10.37,2013-01-19 02:33:00,
2013-01-18 21:43:00,15.2,3.8,30.43,SSW,194,1.0,6.0,60,0.00,CLR,,0.00,WeatherDisplay:10.37,2013-01-19 02:43:00,
2013-01-18 21:53:00,14.9,3.5,30.43,SSW,205,1.0,3.0,60,0.00,CLR,,0.00,WeatherDisplay:10.37,2013-01-19 02:53:00,
2013-01-18 22:03:00,14.9,3.5,30.43,WSW,249,1.0,4.0,60,0.00,CLR,,0.00,WeatherDisplay:10.37,2013-01-19 03:03:00,
2013-01-18 22:13:00,14.7,4.0,30.43,WNW,294,1.0,2.0,62,0.00,CLR,,0.00,WeatherDisplay:10.37,2013-01-19 03:13:00,
2013-01-18 22:23:00,14.7,3.3,30.42,WSW,245,1.0,3.0,60,0.00,CLR,,0.00,WeatherDisplay:10.37,2013-01-19 03:23:00,
2013-01-18 22:33:00,14.5,3.5,30.42,WSW,243,1.0,4.0,61,0.00,CLR,,0.00,WeatherDisplay:10.37,2013-01-19 03:33:00,
2013-01-18 22:43:00,14.5,3.5,30.41,West,259,0.0,3.0,61,0.00,CLR,,0.00,WeatherDisplay:10.37,2013-01-19 03:43:00,
2013-01-18 22:53:00,14.4,3.7,30.40,West,265,1.0,2.0,62,0.00,CLR,,0.00,WeatherDisplay:10.37,2013-01-19 03:53:00,
2013-01-18 23:03:00,14.2,3.6,30.40,WSW,249,0.0,4.0,62,0.00,CLR,,0.00,WeatherDisplay:10.37,2013-01-19 04:03:00,
2013-01-18 23:13:00,14.2,3.9,30.40,SW,220,0.0,4.0,63,0.00,CLR,,0.00,WeatherDisplay:10.37,2013-01-19 04:13:00,
2013-01-18 23:23:00,14.4,4.1,30.39,WSW,240,1.0,3.0,63,0.00,CLR,,0.00,WeatherDisplay:10.37,2013-01-19 04:23:00,
2013-01-18 23:33:00,14.7,4.0,30.39,SW,234,1.0,5.0,62,0.00,CLR,,0.00,WeatherDisplay:10.37,2013-01-19 04:33:00,
2013-01-18 23:43:00,15.3,4.9,30.39,SSW,201,1.0,4.0,63,0.00,CLR,,0.00,WeatherDisplay:10.37,2013-01-19 04:43:00,
2013-01-18 23:53:00,16.0,4.9,30.38,SW,225,1.0,5.0,61,0.00,CLR,,0.00,WeatherDisplay:10.37,2013-01-19 04:53:00,